Current weather by "City, St" or "zip code"  
 
Advertise Here

Current Conditions: Eastsound, Orcas Island Airport, WA

Fair


68.0 F

Last Updated on Jun 18 2021, 4:55 pm PDT
Humidity: 60%
Wind Speed: N 0.0 mph
Barometer 30.06 in
Dewpoint: 53.6 F
Visibility: 10.00 mi
Precip: --
Heat Index: NA
Wind Chill: NA
Current conditions at:

Eastsound, Orcas Island Airport, WA (KORS)

Lat: 48.70806 Lon: 122.91028

Local Radar Image active severe weather and emergency alerts image image weather storm and storm spotter reports image weather observation monitoring service image
Local
Radar
Active
Alerts
Storm Reports Obs
Monitoring

Sign-up For Email & Text Message Weather Alert Notification Services


Advertise Here

Observation History for Eastsound, Orcas Island Airport, WA


Time Wind
(mph)
Vis
(mi)
Weather Precip (in) Temperature (F) Relative
Humidity
Wind
Chill
(F)
Heat
Index
(F)
Pressure
Air Dwpt altimeter
(in)
sea level
(mb)
Rmks
4:55 pm PDT N 0.0 10.00 Fair -- 68.0 53.6 60% NA NA 30.06 M
3:55 pm PDT N 0.0 10.00 Fair -- 68.0 51.8 56% NA NA 30.07 M
1:55 pm PDT NW 5.8 10.00 Fair -- 64.0 53.6 68% NA NA 30.09 M
12:55 pm PDT N 4.6 10.00 Fair -- 64.0 57.2 78% NA NA 30.11 M
10:55 am PDT N 0.0 10.00 Fair -- 63.0 55.4 77% NA NA 30.11 M
9:55 am PDT N 0.0 10.00 Mostly Cloudy -- 63.0 53.6 73% NA NA 30.11 M
8:55 am PDT N 0.0 10.00 Partly Cloudy -- 61.0 51.8 72% NA NA 30.11 M
7:55 am PDT S 6.9 10.00 Fair -- 57.0 51.8 82% 56 NA 30.11 M
6:55 am PDT S 5.8 10.00 Fair -- 55.0 50.0 82% 54 NA 30.10 M
5:55 am PDT S 5.8 10.00 Fair -- 54.0 50.0 88% 53 NA 30.08 M
4:55 am PDT S 5.8 10.00 Fair -- 54.0 48.2 82% 53 NA 30.08 M
3:35 am PDT S 6.9 10.00 Fair -- 55.0 46.4 72% 53 NA 30.06 M
2:55 am PDT S 5.8 10.00 Fair -- 55.0 48.2 77% 54 NA 30.07 M
1:55 am PDT S 6.9 10.00 Fair -- 57.0 44.6 63% 56 NA 30.07 M
12:55 am PDT 5.8 10.00 Fair -- 59.0 41.0 51% 58 NA 30.08 M
11:55 pm PDT S 5.8 10.00 Fair -- 61.0 41.0 48% 61 NA 30.08 M
10:55 pm PDT N 0.0 10.00 Fair -- 63.0 41.0 45% NA NA 30.08 M
9:55 pm PDT S 8.1 10.00 Fair -- 64.0 41.0 43% NA NA 30.08 M
8:55 pm PDT S 9.2 10.00 Fair -- 64.0 42.8 46% NA NA 30.07 M
7:35 pm PDT S 6.9 10.00 Fair -- 70.0 50.0 50% NA NA 30.09 M
6:55 pm PDT S 8.1 10.00 Fair -- 73.0 48.2 41% NA NA 30.10 M
5:55 pm PDT NW 3.5 10.00 Fair -- 70.0 48.2 46% NA NA 30.12 M
4:55 pm PDT N 0.0 10.00 Fair -- 70.0 48.2 46% NA NA 30.13 M

Regional Weather Observation


Friday Harbor Airport, WA (KFHR)

Fair
64.0 F

Bellingham, Bellingham International Airport, WA (KBLI)

Fair
68.0 F

Whidbey Island Naval Air Station - Ault Field, WA (KNUW)

Mostly Cloudy
62.0 F

Burlington/Mount Vernon, Skagit Regional Airport, WA (KBVS)

Fair with Haze
73.0 F

Port Angeles Coast Guard Air Station, WA (KNOW)

Fair and Breezy
59.0 F

Port Angeles Fairchild International Airport, WA (KCLM)

Fair
60.0 F
Advertise Here

Advertise Here